sat.trackr.live / text

‹ back to catalog

STARLINK-5357

NORAD 57141 · 2023-090AS

PAYLOAD ACTIVE UNKNOWN

§ Identity

Operator
Country
US
Launch date
2023-06-23
Launch site
AFETR
Launch vehicle
Mass (kg)
RCS (m²)

Purposes: comms

External: N2YO · Heavens-Above · Gunter

§ Orbital elements

Epoch: 2026-09-20T23:28:44.805504Z

Period
94.27 min
Inclination
43.0026°
Eccentricity
0.0000807
Mean motion
15.27575495 rev/d
Perigee alt
482.5 km
Apogee alt
483.6 km
Semi-major
6,861.2 km
B*
7.7298e-6
RAAN
240.1662°
Arg perigee
278.5509°
Mean anomaly
81.5251°
Rev number
18,022

§ Raw data

STARLINK-53571 57141U 23090AS  26263.97829636 -.00000049  00000+0  77298-5 0  99922 57141  43.0026 240.1662 0000807 278.5509  81.5251 15.27575495180222

JSON: /api/v1/satellites/57141 · /tle

For live sub-satellite position, see the globe view (requires WebGL).

§ Visibility from observer

Set your observer location to see the next 7 days of passes ≥ 10°. The values pass through the URL so the page stays shareable.

No JS? Fill the form by hand. The geolocation button needs JavaScript.